Location: Cahas Mountain Overlook
(37.0833°N, 80.1000°W)
Time: 09:53:12
(UTC-05:00)

S-56A Canister/Altair - Pass Details

Date: 06 December 2023
Orbit: 640 x 2488 km, 38.9° (Epoch: 25 February)

Event Time Altitude Azimuth Distance (km) Brightness Sun altitude
Rises 13:52:10 0° 275° (W) 2,975 10.8 25.8°
Reaches altitude 10° 13:54:29 10° 278° (W) 2,025 10.0 25.6°
Maximum altitude 13:58:56 71° 3° (N) 694 7.5 25.2°
Drops below altitude 10° 14:03:55 10° 88° (E) 2,271 9.7 24.8°
Sets 14:06:39 0° 90° (E) 3,376 10.6 24.5°
